Shelton, WA

9:04 AM PST on November 13, 2019 (GMT -0800)
Sanderson

Weather History for KSHN - October, 2019

Change the Weather History Date:

Monday, October 21, 2019

  Actual Average Record
Temperature  
Mean Temperature 56 °F -  
Max Temperature 60 °F 58 °F 72 °F (2005)
Min Temperature 51 °F 41 °F 30 °F (1981)
Degree Days  
Heating Degree Days 10    
Growing Degree Days 6 (Base 50)    
Moisture  
Dew Point 53 °F    
Average Humidity 95    
Maximum Humidity 100    
Minimum Humidity 89    
Precipitation  
Precipitation 2.61 in - - ()
Sea Level Pressure  
Sea Level Pressure 30.12 in    
Wind  
Wind Speed 9 mph (SSW)    
Max Wind Speed 18 mph    
Max Gust Speed 29 mph    
Visibility 3 miles    
Events Fog , Rain    
Averages and records for this station are not official NWS values.
T = Trace of Precipitation, MM = Missing Value Source: NWS Daily Summary

Daily Weather History Graph

Daily Weather History Graph

Search for Another Location

Airport or City:

Astronomy

Oct. 21, 2019 Rise Set
Actual Time 7:39 AM PDT 6:14 PM PDT
Civil Twilight 7:08 AM PDT 6:45 PM PDT
Nautical Twilight 6:32 AM PDT 7:20 PM PDT
Astronomical Twilight 5:57 AM PDT 7:56 PM PDT
Moon No Moon Rise 3:15 PM PDT (10/21)
Length of Visible Light 11h 37m
Length of Day
10h 34m
Waning Gibbous, 47% of the Moon is Illuminated
Oct 21
Waning Gibbous
Oct 27
New
Nov 4
First Quarter
Nov 12
Full
Nov 19
Last Quarter

Hourly Weather History & Observations

Time (PDT) Temp. Dew Point Humidity Pressure Visibility Wind Dir Wind Speed Gust Speed Precip Events Conditions
12:53 AM 52.0 °F 48.9 °F 89% 30.12 in 8.0 mi WSW 10.4 mph - N/A   Mostly Cloudy
1:53 AM 52.0 °F 48.9 °F 89% 30.13 in 9.0 mi West 10.4 mph - N/A   Overcast
2:53 AM 52.0 °F 48.9 °F 89% 30.12 in 9.0 mi WSW 11.5 mph - N/A   Overcast
3:39 AM 51.1 °F 48.9 °F 92% 30.12 in 8.0 mi WSW 9.2 mph - N/A   Overcast
3:53 AM 51.1 °F 48.0 °F 89% 30.12 in 8.0 mi WSW 10.4 mph - N/A   Overcast
4:53 AM 51.1 °F 48.9 °F 92% 30.14 in 5.0 mi WSW 15.0 mph - 0.01 in Rain Light Rain
5:53 AM 51.1 °F 50.0 °F 96% 30.14 in 8.0 mi SW 10.4 mph - 0.00 in   Overcast
6:42 AM 51.1 °F 51.1 °F 100% 30.15 in 3.0 mi SSW 3.5 mph - 0.01 in   Overcast
6:51 AM 51.8 °F 50.0 °F 94% 30.14 in 3.0 mi South 3.5 mph - 0.01 in Rain Light Rain
6:53 AM 51.1 °F 50.0 °F 96% 30.15 in 4.0 mi South 3.5 mph - 0.01 in Rain Light Rain
7:03 AM 51.1 °F 50.0 °F 96% 30.15 in 5.0 mi SSW 4.6 mph - 0.00 in Rain Light Rain
7:11 AM 51.1 °F 50.0 °F 96% 30.14 in 8.0 mi Calm Calm - 0.00 in   Overcast
7:53 AM 51.1 °F 48.9 °F 92% 30.15 in 7.0 mi SSE 3.5 mph - 0.00 in   Overcast
8:44 AM 52.0 °F 51.1 °F 97% 30.15 in 1.8 mi SSW 8.1 mph - 0.00 in Rain Light Rain
8:53 AM 52.0 °F 51.1 °F 97% 30.15 in 1.0 mi SW 5.8 mph - 0.03 in Rain Rain
9:01 AM 53.1 °F 51.1 °F 93% 30.14 in 1.5 mi South 6.9 mph - 0.01 in Rain Light Rain
9:06 AM 53.1 °F 51.1 °F 93% 30.14 in 2.5 mi South 6.9 mph - 0.02 in Rain Light Rain
9:14 AM 53.1 °F 52.0 °F 96% 30.14 in 4.0 mi South 4.6 mph - 0.02 in Rain Light Rain
9:24 AM 53.1 °F 52.0 °F 96% 30.15 in 4.0 mi South 4.6 mph - 0.02 in Rain Light Rain
9:35 AM 53.1 °F 52.0 °F 96% 30.15 in 5.0 mi SSW 9.2 mph - 0.02 in   Overcast
9:53 AM 53.1 °F 51.1 °F 93% 30.16 in 6.0 mi SSW 9.2 mph - 0.02 in   Overcast
10:34 AM 53.1 °F 51.1 °F 93% 30.15 in 2.0 mi SSW 10.4 mph - 0.00 in Rain Light Rain
10:44 AM 53.1 °F 52.0 °F 96% 30.16 in 2.5 mi SW 8.1 mph - 0.01 in Rain Light Rain
10:53 AM 53.1 °F 51.1 °F 93% 30.16 in 2.5 mi SSW 8.1 mph - 0.01 in Rain Light Rain
11:07 AM 53.1 °F 52.0 °F 96% 30.15 in 2.0 mi South 8.1 mph - 0.01 in Rain Light Rain
11:28 AM 53.1 °F 52.0 °F 96% 30.13 in 1.5 mi SSE 5.8 mph - 0.03 in Rain Light Rain
11:40 AM 53.1 °F 52.0 °F 96% 30.13 in 2.5 mi South 4.6 mph - 0.04 in Rain Light Rain
11:53 AM 53.1 °F 52.0 °F 96% 30.14 in 2.0 mi South 4.6 mph - 0.06 in Rain Rain
11:57 AM 53.1 °F 52.0 °F 96% 30.13 in 1.8 mi SSE 4.6 mph - 0.01 in Rain Light Rain
12:05 PM 53.1 °F 52.0 °F 96% 30.14 in 1.8 mi ESE 4.6 mph - 0.03 in Rain Rain
12:16 PM 52.0 °F 51.1 °F 97% 30.13 in 1.8 mi ESE 6.9 mph - 0.06 in Rain Light Rain
12:46 PM 52.0 °F 51.1 °F 97% 30.13 in 1.5 mi ESE 5.8 mph - 0.16 in Rain Rain
12:53 PM 53.1 °F 51.1 °F 93% 30.13 in 1.8 mi SE 6.9 mph - 0.17 in Rain Rain
1:01 PM 53.1 °F 51.1 °F 93% 30.12 in 2.0 mi SE 6.9 mph - 0.03 in Rain Rain
1:10 PM 53.1 °F 51.1 °F 93% 30.11 in 1.8 mi SE 9.2 mph - 0.06 in Rain Rain
1:15 PM 53.1 °F 51.1 °F 93% 30.11 in 2.0 mi SE 6.9 mph - 0.08 in Rain Rain
1:27 PM 53.1 °F 52.0 °F 96% 30.11 in 1.5 mi SE 6.9 mph - 0.13 in Rain Heavy Rain
1:36 PM 53.1 °F 52.0 °F 96% 30.11 in 1.5 mi SE 4.6 mph - 0.16 in Rain Rain
1:53 PM 53.1 °F 52.0 °F 96% 30.11 in 1.0 mi SE 5.8 mph - 0.22 in Rain Rain
2:37 PM 54.0 °F 54.0 °F 100% 30.09 in 1.2 mi South 9.2 mph - 0.10 in Rain Light Rain
2:53 PM 55.0 °F 54.0 °F 96% 30.09 in 1.2 mi SSW 9.2 mph - 0.11 in Rain Light Rain
3:32 PM 57.9 °F 55.9 °F 93% 30.07 in 2.5 mi SSW 16.1 mph - 0.03 in Rain Light Rain
3:40 PM 57.9 °F 55.9 °F 93% 30.08 in 4.0 mi SSW 15.0 mph 25.3 mph 0.03 in Rain Light Rain
3:53 PM 57.9 °F 55.9 °F 93% 30.07 in 3.0 mi SSW 15.0 mph 21.9 mph 0.04 in Rain Light Rain
4:24 PM 59.0 °F 55.9 °F 90% 30.08 in 1.8 mi SSW 15.0 mph 24.2 mph 0.02 in Rain Light Rain
4:53 PM 57.9 °F 57.0 °F 97% 30.08 in 1.0 mi SSW 9.2 mph - 0.13 in Rain Light Rain
5:14 PM 57.9 °F 57.0 °F 97% 30.09 in 0.8 mi WSW 8.1 mph - 0.08 in Rain Rain
5:53 PM 57.9 °F 57.0 °F 97% 30.10 in 0.5 mi WSW 10.4 mph - 0.59 in Fog , Rain Heavy Rain
6:01 PM 57.9 °F 57.0 °F 97% 30.09 in 0.5 mi WSW 9.2 mph - 0.08 in Fog , Rain Heavy Rain
6:22 PM 57.9 °F 57.0 °F 97% 30.09 in 1.2 mi SW 6.9 mph - 0.25 in Rain Rain
6:53 PM 57.9 °F 57.0 °F 97% 30.09 in 1.8 mi SW 6.9 mph - 0.40 in Rain Heavy Rain
7:00 PM 57.9 °F 57.9 °F 100% 30.09 in 1.8 mi SW 6.9 mph - 0.03 in Rain Rain
7:07 PM 57.9 °F 57.0 °F 97% 30.09 in 2.0 mi WSW 8.1 mph - 0.06 in Rain Rain
7:18 PM 59.0 °F 57.0 °F 93% 30.08 in 2.5 mi SW 9.2 mph - 0.10 in Rain Rain
7:53 PM 59.0 °F 57.0 °F 93% 30.10 in 2.5 mi WSW 13.8 mph 25.3 mph 0.19 in Rain Rain
8:53 PM 59.0 °F 57.0 °F 93% 30.10 in 3.0 mi SW 12.7 mph 21.9 mph 0.05 in Rain Light Rain
9:23 PM 59.0 °F 57.0 °F 93% 30.11 in 2.5 mi SW 13.8 mph - 0.07 in Rain Rain
9:28 PM 59.0 °F 57.0 °F 93% 30.11 in 3.0 mi SW 12.7 mph 20.7 mph 0.08 in Rain Light Rain
9:53 PM 59.0 °F 57.0 °F 93% 30.12 in 1.8 mi SW 12.7 mph - 0.20 in Rain Heavy Rain
10:01 PM 59.0 °F 57.0 °F 93% 30.11 in 3.0 mi SW 16.1 mph 21.9 mph 0.05 in Rain Rain
10:53 PM 59.0 °F 57.0 °F 93% 30.11 in 3.0 mi SW 13.8 mph - 0.26 in Rain Rain
11:40 PM 60.1 °F 57.0 °F 90% 30.11 in 6.0 mi SW 18.4 mph 28.8 mph 0.08 in Rain Light Rain
11:53 PM 59.0 °F 57.0 °F 93% 30.12 in 5.0 mi SW 18.4 mph - 0.11 in Rain Rain